Starlink 31045

operational
NORAD ID: 58541 Int'l Des: 2023-192 Owner: SPXS Country: US Constellation: starlink
LEOCIRCULAR

关于 Starlink 31045

正在加载描述...

实时位置

正在加载3D地球...

即将过境

高度历史

Altitude vs Time

uPlot chart will show altitude changes over time

两行轨道根数

1 58541U 23192L 25258.64567867 .00000546 00000-0 30568-4 0 9992
2 58541 53.1549 232.6496 0001738 89.8962 270.2238 15.30185798 98092
Epoch: Sep 15, 2025 • Age: 19 hours

当前状态

高度 478.5 km
速度 7.63 km/s
星下点 -10.71°S, 71.56°E
发射日期 Dec 8, 2023
运行时间 1.7 years
类型 internet

技术详情

分类 Payload
质量 730.00 kg
干质量 700.00 kg
总质量 730.00 kg
长度 0.30 m
直径 4.10 m
跨度 29.00 m
形状 Box + pan
制造商 SPXS
平台类型 Starlink V2M
阶段状态 In Orbit
所有者/国家 SPXS/US

大型星座

Loading constellations...